• In Österreich
  • Länderverzeichnis
  • Für 7 Tage
  • Wassertemperatur
  • Satellitenkarten
  • Wetterkarte
  • News
  • Widgets
  • user-avatar
    Anmelden

    Stündliche Wetter Avignon

    Heute, 23 Juli, Montag

    Zeit Temperatur Niederschläge Wind Luftdruck Luftfeuchtigkeit
    00:00 +23°C° 0 mm 5 m/S 758 mmHg 61%
    01:00 +22°C° 0 mm 5 m/S 758 mmHg 63%
    02:00 +22°C° 0 mm 5 m/S 758 mmHg 65%
    03:00 +22°C° 0 mm 5 m/S 758 mmHg 67%
    04:00 +22°C° 0 mm 5 m/S 758 mmHg 66%
    05:00 +22°C° 0 mm 5 m/S 759 mmHg 65%
    06:00 +25°C° 0 mm 5 m/S 758 mmHg 61%
    07:00 +27°C° 0 mm 5 m/S 758 mmHg 54%
    08:00 +29°C° 0 mm 5 m/S 758 mmHg 48%
    09:00 +32°C° 0 mm 5 m/S 758 mmHg 41%
    10:00 +33°C° 0 mm 5 m/S 758 mmHg 37%
    11:00 +34°C° 0 mm 5 m/S 758 mmHg 34%
    12:00 +36°C° 0 mm 5 m/S 758 mmHg 30%
    13:00 +36°C° 0 mm 5 m/S 758 mmHg 29%
    14:00 +36°C° 0 mm 5 m/S 757 mmHg 29%
    15:00 +37°C° 0 mm 5 m/S 757 mmHg 28%
    16:00 +36°C° 0 mm 5 m/S 757 mmHg 31%
    17:00 +35°C° 0 mm 4 m/S 757 mmHg 34%
    18:00 +34°C° 0 mm 4 m/S 757 mmHg 37%
    19:00 +32°C° 0 mm 4 m/S 758 mmHg 41%
    20:00 +29°C° 0 mm 3 m/S 758 mmHg 46%
    21:00 +27°C° 0 mm 3 m/S 758 mmHg 51%
    22:00 +26°C° 0 mm 2 m/S 758 mmHg 54%
    23:00 +26°C° 0 mm 2 m/S 758 mmHg 57%

    Morgen, 24 Juli, Dienstag

    Zeit Temperatur Niederschläge Wind Luftdruck Luftfeuchtigkeit
    00:00 +25°C° 0 mm 2 m/S 759 mmHg 59%
    01:00 +24°C° 0 mm 2 m/S 758 mmHg 60%
    02:00 +24°C° 0 mm 2 m/S 758 mmHg 61%
    03:00 +24°C° 0 mm 2 m/S 758 mmHg 62%
    04:00 +24°C° 0 mm 2 m/S 758 mmHg 61%
    05:00 +25°C° 0 mm 2 m/S 758 mmHg 59%
    06:00 +26°C° 0 mm 2 m/S 758 mmHg 57%
    07:00 +28°C° 0 mm 2 m/S 758 mmHg 51%
    08:00 +30°C° 0 mm 1 m/S 758 mmHg 45%
    09:00 +33°C° 0 mm 1 m/S 758 mmHg 38%
    10:00 +35°C° 0 mm 2 m/S 758 mmHg 35%
    11:00 +36°C° 0 mm 2 m/S 757 mmHg 31%
    12:00 +37°C° 0 mm 3 m/S 757 mmHg 28%
    13:00 +37°C° 0 mm 3 m/S 757 mmHg 29%
    14:00 +37°C° 0 mm 4 m/S 757 mmHg 29%
    15:00 +37°C° 0 mm 4 m/S 757 mmHg 30%
    16:00 +36°C° 0 mm 4 m/S 757 mmHg 35%
    17:00 +35°C° 0 mm 3 m/S 757 mmHg 40%
    18:00 +33°C° 0 mm 3 m/S 757 mmHg 46%
    19:00 +30°C° 0,1 mm 3 m/S 757 mmHg 53%
    20:00 +28°C° 0,1 mm 2 m/S 757 mmHg 61%
    21:00 +26°C° 0,1 mm 1 m/S 758 mmHg 69%
    22:00 +26°C° 0 mm 1 m/S 758 mmHg 69%
    23:00 +26°C° 0 mm 2 m/S 758 mmHg 70%

    übermorgen, 25 Juli, Mittwoch

    Zeit Temperatur Niederschläge Wind Luftdruck Luftfeuchtigkeit
    00:00 +25°C° 0 mm 2 m/S 758 mmHg 71%
    01:00 +25°C° 0 mm 2 m/S 758 mmHg 70%
    02:00 +25°C° 0 mm 2 m/S 758 mmHg 69%
    03:00 +24°C° 0 mm 2 m/S 758 mmHg 68%
    04:00 +25°C° 0 mm 2 m/S 758 mmHg 65%
    05:00 +26°C° 0 mm 2 m/S 758 mmHg 62%
    06:00 +26°C° 0 mm 2 m/S 758 mmHg 59%
    07:00 +29°C° 0 mm 3 m/S 758 mmHg 52%
    08:00 +32°C° 0 mm 4 m/S 758 mmHg 44%
    09:00 +34°C° 0 mm 4 m/S 758 mmHg 37%
    10:00 +35°C° 0 mm 4 m/S 758 mmHg 34%
    11:00 +37°C° 0 mm 4 m/S 758 mmHg 31%
    12:00 +39°C° 0 mm 5 m/S 757 mmHg 28%
    13:00 +39°C° 0 mm 5 m/S 757 mmHg 27%
    14:00 +39°C° 0 mm 5 m/S 757 mmHg 26%
    15:00 +39°C° 0 mm 5 m/S 757 mmHg 25%
    16:00 +37°C° 0 mm 5 m/S 757 mmHg 28%
    17:00 +36°C° 0 mm 4 m/S 757 mmHg 30%
    18:00 +35°C° 0 mm 4 m/S 757 mmHg 33%
    19:00 +33°C° 0 mm 3 m/S 757 mmHg 39%
    20:00 +30°C° 0 mm 3 m/S 758 mmHg 44%
    21:00 +28°C° 0 mm 2 m/S 758 mmHg 50%
    22:00 +28°C° 0 mm 2 m/S 758 mmHg 54%
    23:00 +27°C° 0 mm 2 m/S 758 mmHg 57%

    26 Juli, Donnerstag

    Zeit Temperatur Niederschläge Wind Luftdruck Luftfeuchtigkeit
    00:00 +26°C° 0 mm 3 m/S 758 mmHg 61%
    01:00 +26°C° 0 mm 3 m/S 758 mmHg 63%
    02:00 +25°C° 0 mm 3 m/S 758 mmHg 65%
    03:00 +25°C° 0 mm 3 m/S 758 mmHg 67%
    04:00 +25°C° 0 mm 3 m/S 758 mmHg 65%
    05:00 +26°C° 0 mm 2 m/S 758 mmHg 63%
    06:00 +26°C° 0 mm 2 m/S 758 mmHg 62%
    07:00 +29°C° 0 mm 2 m/S 758 mmHg 54%
    08:00 +31°C° 0 mm 2 m/S 758 mmHg 47%
    09:00 +34°C° 0 mm 2 m/S 758 mmHg 40%
    10:00 +35°C° 0 mm 2 m/S 757 mmHg 36%
    11:00 +37°C° 0 mm 2 m/S 757 mmHg 31%
    12:00 +38°C° 0 mm 2 m/S 757 mmHg 27%
    13:00 +38°C° 0 mm 3 m/S 757 mmHg 27%
    14:00 +38°C° 0 mm 3 m/S 757 mmHg 26%
    15:00 +38°C° 0 mm 3 m/S 756 mmHg 26%
    16:00 +37°C° 0 mm 4 m/S 757 mmHg 30%
    17:00 +36°C° 0 mm 4 m/S 757 mmHg 35%
    18:00 +34°C° 0 mm 4 m/S 757 mmHg 39%
    19:00 +31°C° 0 mm 3 m/S 757 mmHg 46%
    20:00 +30°C° 0 mm 2 m/S 757 mmHg 52%
    21:00 +28°C° 0 mm 1 m/S 758 mmHg 58%
    22:00 +27°C° 0 mm 1 m/S 758 mmHg 60%
    23:00 +27°C° 0 mm 1 m/S 758 mmHg 61%

    27 Juli, Freitag

    Zeit Temperatur Niederschläge Wind Luftdruck Luftfeuchtigkeit
    00:00 +26°C° 0 mm 1 m/S 758 mmHg 63%
    01:00 +26°C° 0 mm 1 m/S 758 mmHg 63%
    02:00 +26°C° 0 mm 1 m/S 758 mmHg 63%
    03:00 +25°C° 0 mm 1 m/S 758 mmHg 64%
    04:00 +26°C° 0 mm 1 m/S 758 mmHg 61%
    05:00 +27°C° 0 mm 1 m/S 758 mmHg 59%
    06:00 +27°C° 0 mm 1 m/S 758 mmHg 57%
    07:00 +30°C° 0 mm 2 m/S 758 mmHg 50%
    08:00 +32°C° 0 mm 2 m/S 758 mmHg 43%
    09:00 +36°C° 0 mm 2 m/S 758 mmHg 36%
    10:00 +37°C° 0 mm 3 m/S 757 mmHg 32%
    11:00 +38°C° 0 mm 3 m/S 757 mmHg 28%
    12:00 +40°C° 0 mm 3 m/S 757 mmHg 24%
    13:00 +41°C° 0 mm 4 m/S 757 mmHg 24%
    14:00 +41°C° 0 mm 4 m/S 757 mmHg 24%
    15:00 +41°C° 0 mm 4 m/S 756 mmHg 24%
    16:00 +40°C° 0 mm 4 m/S 757 mmHg 27%
    17:00 +38°C° 0 mm 4 m/S 757 mmHg 31%
    18:00 +37°C° 0 mm 4 m/S 757 mmHg 34%
    19:00 +35°C° 0 mm 3 m/S 757 mmHg 38%
    20:00 +33°C° 0 mm 3 m/S 758 mmHg 43%
    21:00 +30°C° 0 mm 2 m/S 758 mmHg 48%
    22:00 +30°C° 0 mm 3 m/S 758 mmHg 49%
    23:00 +29°C° 0 mm 3 m/S 758 mmHg 50%

    28 Juli, Samstag

    Zeit Temperatur Niederschläge Wind Luftdruck Luftfeuchtigkeit
    00:00 +28°C° 0 mm 3 m/S 758 mmHg 52%
    01:00 +28°C° 0 mm 3 m/S 758 mmHg 54%
    02:00 +27°C° 0 mm 3 m/S 758 mmHg 56%
    03:00 +27°C° 0 mm 3 m/S 758 mmHg 57%
    04:00 +27°C° 0 mm 3 m/S 758 mmHg 58%
    05:00 +28°C° 0 mm 4 m/S 758 mmHg 59%
    06:00 +28°C° 0 mm 4 m/S 758 mmHg 59%
    07:00 +30°C° 0 mm 5 m/S 758 mmHg 54%
    08:00 +33°C° 0 mm 5 m/S 758 mmHg 49%
    09:00 +34°C° 0 mm 5 m/S 758 mmHg 44%
    10:00 +36°C° 0 mm 5 m/S 758 mmHg 39%
    11:00 +37°C° 0 mm 5 m/S 758 mmHg 34%
    12:00 +40°C° 0 mm 5 m/S 757 mmHg 30%
    13:00 +40°C° 0 mm 5 m/S 757 mmHg 29%
    14:00 +40°C° 0 mm 5 m/S 757 mmHg 29%
    15:00 +40°C° 0 mm 5 m/S 757 mmHg 29%
    16:00 +39°C° 0 mm 5 m/S 757 mmHg 32%
    17:00 +37°C° 0 mm 5 m/S 757 mmHg 35%
    18:00 +36°C° 0 mm 4 m/S 757 mmHg 38%
    19:00 +34°C° 0 mm 4 m/S 757 mmHg 44%
    20:00 +32°C° 0 mm 4 m/S 758 mmHg 50%
    21:00 +29°C° 0 mm 4 m/S 758 mmHg 56%
    22:00 +29°C° 0 mm 4 m/S 758 mmHg 59%
    23:00 +28°C° 0 mm 4 m/S 758 mmHg 62%
    Mehr zeigen